Wind_Speed
12 12 12 12 12 6 9 10 12 17 6 11 4 7 6 5 12 18 24 29 34 35 34 34 35 35 35 36 37 37 37 36 35 36 35 35 34 36 35 33 30 29 29 29
7 15 10 4 12 12 7 10 14 6 3 7 8 6 4 4 12 20 26 32 35 36 39 40 39 39 40 41 41 41 40 40 38 37 37 38 38 38 37 36 36 33 31 31
17 9 6 7 12 17 4 13 16 18 17 3 4 8 5 4 11 22 28 34 34 37 40 42 42 43 44 44 43 42 42 41 40 39 39 38 38 38 37 35 36 34 32 32
9 11 10 9 11 16 7 17 16 14 8 5 3 3 6 4 13 25 36 36 36 39 40 43 45 46 47 47 45 45 42 41 40 39 39 39 40 40 39 38 38 37 37 37
5 9 15 12 10 14 8 25 20 8 8 6 5 7 7 7 17 26 35 39 39 41 43 46 47 48 50 48 48 45 45 42 42 40 40 39 39 38 38 39 39 39 39 37
10 7 9 11 9 5 24 23 6 4 5 3 6 7 8 8 18 25 37 40 42 43 45 48 49 51 50 51 48 46 46 44 46 44 41 45 42 40 40 39 39 39 38 38
7 15 5 23 9 1 22 20 5 4 5 6 18 8 8 9 20 25 34 41 44 46 47 49 51 53 51 50 50 49 47 47 51 50 49 46 44 40 40 38 38 35 35 34
7 1 14 17 14 8 13 13 5 6 9 12 10 10 5 7 29 31 35 40 44 46 48 48 53 53 51 51 51 51 54 56 55 53 50 44 41 39 37 36 36 37 37 37
8 4 4 9 11 16 8 7 4 6 7 7 6 7 7 22 27 34 38 42 43 45 46 53 53 52 54 50 53 52 51 54 54 52 49 46 42 39 34 31 32 33 31 31
6 2 5 3 3 13 8 8 2 4 8 8 10 5 10 25 27 30 39 42 44 46 51 52 55 52 52 54 54 54 55 55 53 49 44 43 41 38 36 32 29 29 30 28
6 2 4 2 8 10 7 6 5 2 2 4 7 5 11 21 25 29 42 44 45 49 49 55 52 54 54 54 54 56 57 55 52 46 42 42 44 40 37 34 30 26 23 24
6 4 4 4 5 5 10 7 5 3 6 5 3 5 21 29 31 38 42 43 47 47 53 52 53 56 55 54 57 59 58 57 52 46 44 44 42 38 36 33 30 26 22 18
6 2 3 6 4 4 4 4 2 1 3 3 4 6 27 29 34 39 42 44 46 49 53 54 56 57 54 58 60 59 57 57 52 46 46 42 38 38 41 42 40 34 19 10
3 2 4 4 4 3 2 1 3 5 4 10 10 21 23 22 26 40 43 44 45 48 49 52 56 56 56 59 59 57 58 56 53 49 44 42 40 35 38 41 40 33 14 4
3 1 2 3 2 2 3 3 3 3 8 5 17 19 19 23 32 39 41 42 47 49 50 54 56 56 58 62 61 57 56 55 52 46 44 42 38 35 34 37 41 37 26 12
3 0 3 2 2 5 5 4 6 7 8 12 15 17 25 32 35 37 39 43 46 47 50 53 54 56 58 59 58 54 55 52 48 48 45 42 40 37 36 36 37 39 38 23
2 1 3 2 1 3 5 2 3 9 10 10 12 18 27 28 34 38 35 43 45 46 48 51 53 53 57 56 53 49 51 47 48 48 45 43 42 40 39 38 41 44 47 34
1 2 1 3 2 2 4 2 4 9 11 4 11 20 25 28 32 32 34 42 44 46 47 49 52 53 54 51 48 44 45 45 44 47 47 44 43 41 40 42 44 47 47 48
5 1 1 3 6 2 3 1 4 6 11 1 14 23 28 30 29 22 37 39 41 43 42 48 47 48 49 48 46 42 45 43 42 44 44 44 44 42 40 43 46 47 48 49
2 2 1 1 3 3 3 2 3 4 2 10 19 22 25 31 16 25 44 43 42 41 41 47 44 45 45 45 45 43 43 41 40 40 38 37 38 40 42 41 40 42 46 48
1 1 2 1 3 1 5 3 1 4 6 18 19 20 24 23 25 35 39 38 37 38 43 42 41 44 44 41 43 43 41 38 35 33 34 36 34 37 36 36 37 40 39 41
2 2 1 1 2 3 8 4 2 6 11 15 17 20 23 26 29 31 34 38 39 41 47 41 41 42 40 39 41 42 40 37 32 28 29 34 37 35 36 33 33 35 32 38
2 2 1 4 2 4 3 1 3 4 10 14 16 19 22 25 29 31 36 35 37 39 41 41 38 40 38 37 39 40 38 37 31 26 26 28 33 39 37 38 36 34 34 33
5 5 3 2 6 6 3 2 2 5 9 12 14 18 20 23 27 30 31 33 34 39 39 41 36 39 39 37 38 36 35 35 29 26 25 24 26 30 40 40 39 41 38 36
3 10 6 4 4 4 4 4 2 5 6 9 13 16 18 21 25 28 31 32 35 37 38 39 34 36 36 33 35 35 32 33 29 24 26 23 23 23 25 38 38 37 38 36
10 5 4 2 8 2 7 5 2 3 7 10 14 18 18 19 24 27 29 29 32 37 36 38 30 34 32 30 33 34 30 31 29 27 26 26 25 24 24 24 31 37 36 36
Wind_Direction
51 63 42 33 24 346 307 301 320 345 63 324 81 123 93 36 16 4 1 352 347 343 340 339 336 333 330 326 323 320 316 313 311 308 304 301 297 296 292 286 282 279 272 270
116 53 28 22 13 335 333 347 345 318 308 321 121 128 114 24 19 7 355 349 347 344 340 339 337 334 331 327 325 321 317 314 311 308 302 298 295 291 286 284 280 277 276 272
62 25 6 13 16 354 59 1 338 314 315 143 191 163 197 98 12 358 351 349 348 344 338 337 335 333 332 329 327 322 319 315 311 308 305 300 294 290 286 283 279 277 273 270
59 24 15 20 21 354 308 354 321 322 320 348 198 2 134 13 359 354 350 349 345 342 339 337 336 335 333 330 327 324 322 319 315 312 306 300 295 290 285 281 281 278 274 269
52 31 18 26 1 352 325 316 289 284 286 307 99 298 106 46 355 354 347 346 343 341 339 337 337 335 332 329 328 326 324 322 318 314 307 303 296 291 288 283 279 275 273 269
74 65 35 356 315 338 333 325 82 194 257 238 34 338 81 22 4 350 344 341 341 339 339 338 336 333 330 331 330 330 326 322 318 324 317 308 309 296 291 285 280 278 273 269
129 51 88 13 356 194 2 357 353 346 339 4 358 312 61 19 7 355 343 340 339 339 341 337 335 333 332 333 332 330 328 323 330 329 325 322 315 309 300 292 285 278 273 268
346 264 21 19 32 322 357 12 31 319 341 315 300 340 87 359 3 353 344 339 338 339 338 336 334 334 335 335 332 330 330 330 332 330 329 326 320 312 305 295 287 281 273 267
348 82 117 33 17 14 346 22 337 289 286 297 352 65 160 1 357 349 344 341 339 338 338 334 337 337 337 334 333 332 330 331 333 335 336 335 333 327 317 301 288 283 276 268
20 277 34 35 263 52 47 353 6 325 346 320 338 28 348 350 350 346 344 340 340 338 338 339 338 338 337 335 336 335 337 337 342 346 346 344 343 341 335 323 307 288 280 273
344 272 101 245 32 10 11 25 10 273 14 310 316 34 5 351 348 343 338 338 339 339 338 338 339 340 337 338 338 339 344 350 353 354 352 352 350 346 340 333 323 311 289 271
14 319 14 51 101 47 42 27 3 1 338 308 260 291 18 352 341 341 335 338 340 335 341 340 341 341 340 341 342 346 354 356 359 359 358 355 351 349 349 348 341 320 296 275
359 54 293 176 189 186 41 24 17 225 243 271 310 293 355 336 340 339 336 340 336 342 341 342 343 341 342 343 346 355 1 359 1 2 358 358 1 7 5 2 358 345 312 275
312 3 9 340 354 337 309 338 332 324 286 324 286 326 331 344 337 336 338 339 340 342 341 344 343 342 343 346 348 358 0 3 4 4 3 5 9 14 21 17 22 21 42 6
335 319 5 24 42 289 319 271 261 247 308 295 313 320 337 337 333 334 337 335 344 343 345 345 342 341 344 349 354 3 6 7 4 7 9 10 15 20 25 32 30 35 29 24
2 354 299 230 270 293 263 238 278 294 305 304 311 311 344 327 331 339 336 347 343 342 345 344 341 342 345 349 354 5 10 7 11 11 13 14 21 25 30 35 40 42 36 30
344 336 302 2 326 301 233 236 284 318 327 317 313 327 330 331 336 335 338 346 343 344 345 343 341 341 346 351 357 8 12 8 16 16 19 19 23 28 35 38 44 46 43 44
38 24 350 310 256 270 90 62 336 312 302 308 314 322 328 331 331 324 353 343 343 345 344 342 341 346 351 356 7 14 16 14 19 22 22 24 25 30 37 44 47 50 50 50
22 39 322 299 304 63 156 205 348 342 311 316 326 330 332 335 330 340 345 345 344 345 344 341 343 349 357 3 7 13 14 13 12 17 17 18 25 29 39 45 49 49 56 59
30 55 279 15 314 307 70 130 321 298 222 340 338 333 335 338 341 334 338 342 343 344 346 342 349 357 4 8 6 8 11 11 10 10 12 20 21 25 32 39 51 55 58 60
203 299 273 309 282 225 133 134 157 300 355 334 334 333 336 337 330 322 334 339 343 346 344 346 356 2 6 9 6 5 5 11 5 5 9 24 28 28 33 37 35 45 56 62
264 193 177 109 261 275 153 161 270 343 322 328 332 331 332 328 331 334 337 340 345 347 345 350 357 4 12 12 8 3 6 12 3 8 13 22 31 37 38 40 46 44 38 45
245 242 289 218 351 102 159 300 318 297 315 324 326 329 330 333 334 336 339 344 346 346 347 348 356 3 14 13 11 7 10 14 7 12 21 22 30 43 45 42 46 44 41 44
199 197 237 300 177 223 208 228 277 297 309 322 326 326 335 334 336 339 338 343 347 346 347 348 357 4 11 12 10 10 13 16 11 17 25 24 26 29 45 49 47 52 52 46
38 160 201 244 192 185 205 183 285 310 325 326 325 332 337 339 337 338 343 345 346 347 346 351 355 2 10 11 9 11 19 17 13 20 24 31 33 34 33 42 48 50 51 56
185 192 197 16 128 153 133 179 265 324 335 332 334 337 342 343 338 343 341 346 347 345 347 351 359 3 11 13 8 11 20 20 15 24 31 33 39 41 45 46 46 55 60 60
Height
1548 1551 1563 1564 1564 1563 1557 1551 1545 1548 1559 1560 1568 1579 1586 1588 1585 1584 1583 1577 1572 1568 1563 1558 1552 1546 1539 1532 1525 1518 1511 1505 1499 1492 1487 1481 1475 1471 1467 1464 1461 1458 1456 1454
1548 1565 1571 1569 1566 1559 1552 1551 1552 1550 1551 1558 1568 1578 1587 1588 1585 1585 1581 1576 1571 1565 1559 1553 1546 1541 1534 1527 1519 1512 1505 1498 1492 1486 1480 1474 1468 1462 1458 1454 1451 1449 1447 1445
1561 1576 1573 1567 1568 1562 1552 1560 1562 1561 1552 1556 1562 1572 1581 1584 1586 1584 1580 1575 1570 1565 1558 1551 1543 1536 1529 1521 1514 1506 1499 1491 1485 1479 1472 1465 1459 1453 1448 1445 1442 1440 1439 1437
1572 1577 1572 1570 1571 1571 1552 1561 1562 1557 1553 1545 1560 1554 1575 1583 1582 1580 1575 1573 1569 1563 1556 1549 1541 1533 1525 1517 1509 1501 1492 1485 1478 1472 1464 1457 1450 1442 1438 1435 1432 1430 1429 1427
1586 1581 1580 1576 1581 1577 1566 1561 1553 1554 1553 1551 1558 1554 1575 1578 1580 1577 1575 1572 1567 1561 1553 1545 1537 1530 1521 1511 1502 1494 1486 1478 1470 1463 1455 1446 1439 1433 1428 1424 1421 1419 1417 1416
1583 1587 1589 1589 1581 1580 1572 1550 1545 1552 1548 1543 1560 1562 1576 1586 1586 1581 1575 1572 1565 1558 1551 1544 1535 1525 1515 1505 1497 1488 1479 1469 1461 1450 1442 1435 1427 1422 1416 1412 1409 1407 1405 1404
1579 1588 1591 1591 1577 1576 1575 1556 1544 1544 1544 1545 1551 1555 1583 1588 1584 1585 1577 1571 1564 1557 1549 1540 1529 1518 1510 1499 1490 1480 1471 1461 1451 1441 1432 1424 1417 1410 1405 1401 1397 1395 1393 1391
1575 1571 1596 1600 1598 1597 1586 1581 1581 1590 1568 1564 1552 1558 1578 1585 1586 1585 1580 1572 1564 1556 1549 1537 1527 1516 1506 1495 1485 1474 1463 1451 1441 1432 1422 1414 1406 1399 1394 1389 1385 1382 1380 1380
1587 1591 1603 1604 1602 1595 1590 1595 1602 1594 1572 1569 1547 1566 1580 1578 1583 1583 1578 1571 1563 1555 1545 1535 1524 1514 1503 1492 1479 1468 1457 1446 1435 1424 1413 1403 1395 1388 1382 1376 1372 1369 1367 1366
1600 1591 1603 1605 1603 1603 1602 1604 1595 1590 1598 1586 1555 1561 1582 1579 1578 1578 1574 1569 1561 1552 1543 1530 1522 1511 1500 1488 1476 1464 1453 1440 1428 1417 1407 1397 1387 1379 1372 1366 1360 1357 1355 1355
1604 1598 1600 1601 1613 1613 1605 1606 1603 1607 1604 1606 1585 1573 1590 1589 1586 1580 1575 1569 1561 1551 1540 1530 1519 1509 1497 1485 1472 1460 1447 1435 1423 1413 1402 1392 1382 1374 1366 1358 1351 1346 1345 1345
1610 1603 1597 1613 1621 1621 1620 1618 1615 1615 1612 1607 1616 1597 1588 1590 1589 1586 1576 1568 1560 1551 1542 1531 1519 1507 1494 1482 1469 1457 1444 1432 1421 1410 1400 1390 1380 1371 1362 1353 1344 1337 1335 1337
1613 1600 1593 1610 1620 1619 1620 1626 1626 1625 1625 1609 1621 1588 1593 1595 1590 1587 1577 1568 1560 1551 1541 1530 1518 1505 1494 1481 1468 1456 1444 1431 1421 1410 1399 1390 1380 1370 1359 1349 1339 1328 1325 1329
1617 1608 1607 1606 1612 1623 1620 1627 1629 1625 1619 1617 1608 1601 1601 1596 1591 1583 1576 1571 1561 1553 1543 1532 1519 1507 1495 1482 1469 1456 1444 1433 1422 1411 1402 1392 1381 1371 1360 1351 1341 1330 1325 1327
1616 1609 1613 1621 1623 1623 1623 1624 1626 1631 1625 1627 1614 1609 1599 1600 1595 1588 1579 1569 1560 1550 1541 1532 1521 1508 1496 1482 1470 1457 1447 1436 1426 1415 1405 1395 1385 1375 1364 1354 1346 1338 1333 1330
1619 1612 1616 1616 1623 1623 1623 1624 1625 1621 1621 1620 1614 1606 1609 1603 1595 1588 1580 1569 1561 1553 1544 1535 1523 1510 1497 1486 1473 1462 1450 1441 1432 1421 1411 1401 1391 1380 1370 1360 1351 1343 1337 1332
1619 1617 1614 1601 1622 1622 1616 1617 1622 1622 1620 1622 1615 1614 1610 1603 1596 1589 1579 1574 1565 1555 1546 1536 1525 1513 1501 1490 1479 1467 1457 1448 1438 1428 1417 1408 1398 1388 1378 1368 1358 1349 1341 1335
1621 1621 1623 1612 1616 1606 1621 1625 1626 1625 1621 1622 1620 1614 1613 1606 1599 1590 1584 1578 1567 1557 1548 1538 1526 1513 1503 1494 1483 1472 1463 1454 1445 1435 1425 1416 1407 1398 1388 1378 1367 1359 1353 1346
1625 1622 1626 1618 1603 1605 1623 1624 1626 1625 1619 1622 1620 1617 1609 1604 1597 1588 1585 1578 1570 1561 1551 1541 1529 1518 1507 1496 1487 1476 1467 1459 1451 1441 1433 1426 1416 1408 1399 1389 1380 1374 1366 1359
1627 1626 1623 1620 1619 1604 1616 1624 1626 1626 1615 1622 1618 1612 1608 1602 1590 1585 1580 1575 1568 1561 1552 1540 1529 1519 1509 1498 1490 1480 1471 1463 1456 1449 1443 1435 1427 1418 1410 1403 1395 1389 1381 1374
1621 1627 1622 1612 1616 1606 1619 1624 1625 1615 1617 1619 1618 1616 1612 1607 1604 1592 1584 1577 1571 1561 1550 1540 1530 1521 1512 1503 1494 1484 1476 1468 1464 1458 1451 1442 1433 1427 1420 1413 1407 1401 1394 1388
1616 1620 1618 1625 1624 1609 1621 1625 1624 1625 1623 1622 1620 1617 1613 1608 1600 1594 1584 1577 1568 1559 1547 1539 1531 1522 1514 1506 1497 1489 1481 1475 1471 1463 1457 1448 1441 1434 1428 1422 1416 1410 1405 1400
1614 1617 1614 1617 1609 1619 1622 1624 1625 1624 1623 1621 1619 1616 1612 1607 1601 1593 1587 1578 1570 1562 1552 1543 1535 1525 1518 1510 1502 1493 1486 1479 1476 1468 1462 1457 1450 1442 1436 1429 1423 1418 1413 1410
1617 1620 1617 1619 1616 1620 1622 1623 1624 1624 1624 1624 1620 1615 1611 1607 1601 1593 1584 1577 1570 1563 1554 1544 1536 1528 1520 1513 1506 1499 1492 1485 1481 1473 1468 1464 1459 1453 1445 1439 1433 1428 1422 1419
1612 1618 1615 1614 1616 1620 1621 1622 1622 1622 1622 1621 1618 1615 1611 1606 1599 1593 1586 1579 1573 1564 1557 1548 1540 1532 1524 1518 1511 1503 1496 1491 1486 1480 1474 1470 1466 1462 1458 1450 1445 1440 1436 1432
1609 1608 1610 1603 1610 1615 1617 1620 1621 1621 1622 1619 1616 1613 1609 1605 1598 1593 1587 1581 1574 1565 1557 1549 1542 1535 1528 1522 1516 1508 1502 1496 1492 1486 1480 1476 1472 1469 1465 1462 1458 1452 1448 1444